Deming, NM

11:16 AM MDT on July 28, 2016 (GMT -0600)
Deming Municipal

Weather History for KDMN - January, 2014

Change the Weather History Date:

Friday, January 24, 2014

  Actual Average Record
Temperature  
Mean Temperature 37 °F 43 °F  
Max Temperature 49 °F 58 °F 76 °F (1970)
Min Temperature 25 °F 28 °F 13 °F (1966)
Degree Days  
Heating Degree Days 30    
Moisture  
Dew Point 14 °F    
Average Humidity 42    
Maximum Humidity 55    
Minimum Humidity 28    
Precipitation  
Precipitation 0.00 in 0.02 in 0.40 in (1962)
Month to date precipitation 0.00 0.46  
Year to date precipitation 0.00 0.46  
Sea Level Pressure  
Sea Level Pressure 30.45 in    
Wind  
Wind Speed 5 mph (ENE)    
Max Wind Speed 13 mph    
Max Gust Speed 22 mph    
Visibility 10 miles    
Events      
T = Trace of Precipitation, MM = Missing Value Source: NWS Daily Summary

Daily Weather History Graph

Daily Weather History Graph

Search for Another Location

Airport or City:

Trip Planner

Search our weather history database for the weather conditions in past years. The results will help you decide how hot, cold, wet, or windy it might be!

Date:

Astronomy

Jan. 24, 2014 Rise Set
Actual Time 7:09 AM MST 5:37 PM MST
Civil Twilight 6:43 AM MST 6:03 PM MST
Nautical Twilight 6:13 AM MST 6:32 PM MST
Astronomical Twilight 5:44 AM MST 7:02 PM MST
Moon 12:44 AM MST (1/24) 11:54 AM MST (1/24)
Length of Visible Light 11h 19m
Length of Day
10h 27m
Last Quarter, 44% of the Moon is Illuminated
Jan 24
Last Quarter
Jan 30
New
Feb 6
First Quarter
Feb 14
Full
Feb 22
Last Quarter

Hourly Weather History & Observations

Time (MST) Temp. Windchill Dew Point Humidity Pressure Visibility Wind Dir Wind Speed Gust Speed Precip Events Conditions
12:53 AM 28.0 °F 19.3 °F 12.9 °F 53% 30.48 in 10.0 mi East 9.2 mph - N/A   Clear
1:53 AM 26.1 °F 17.6 °F 12.0 °F 55% 30.50 in 10.0 mi East 8.1 mph - N/A   Clear
2:53 AM 26.1 °F 16.8 °F 10.9 °F 53% 30.51 in 10.0 mi East 9.2 mph - N/A   Clear
3:53 AM 25.0 °F 15.5 °F 10.9 °F 55% 30.51 in 10.0 mi ENE 9.2 mph - N/A   Clear
4:53 AM 26.1 °F 16.2 °F 12.9 °F 58% 30.51 in 10.0 mi East 10.4 mph - N/A   Clear
5:53 AM 26.1 °F 18.4 °F 12.9 °F 58% 30.53 in 10.0 mi East 6.9 mph - N/A   Clear
6:53 AM 26.1 °F 18.4 °F 12.9 °F 58% 30.54 in 10.0 mi East 6.9 mph - N/A   Clear
7:53 AM 26.1 °F 18.4 °F 12.9 °F 58% 30.56 in 10.0 mi East 6.9 mph - N/A   Clear
8:53 AM 30.0 °F 22.4 °F 12.9 °F 49% 30.56 in 10.0 mi East 8.1 mph - N/A   Clear
9:53 AM 34.0 °F 26.6 °F 14.0 °F 44% 30.56 in 10.0 mi ENE 9.2 mph - N/A   Clear
10:53 AM 37.0 °F 32.4 °F 14.0 °F 39% 30.54 in 10.0 mi East 5.8 mph - N/A   Clear
11:53 AM 41.0 °F 37.1 °F 15.1 °F 35% 30.49 in 10.0 mi Variable 5.8 mph - N/A   Clear
12:53 PM 42.1 °F - 15.1 °F 34% 30.45 in 10.0 mi Calm Calm - N/A   Clear
1:53 PM 44.1 °F - 15.1 °F 31% 30.41 in 10.0 mi Calm Calm - N/A   Clear
2:53 PM 46.9 °F - 16.0 °F 29% 30.38 in 10.0 mi NNE 4.6 mph - N/A   Clear
3:53 PM 46.9 °F - 16.0 °F 29% 30.37 in 10.0 mi ESE 3.5 mph - N/A   Clear
4:53 PM 46.0 °F - 16.0 °F 30% 30.36 in 10.0 mi Calm Calm - N/A   Clear
5:53 PM 43.0 °F 40.3 °F 15.1 °F 32% 30.38 in 8.0 mi SW 4.6 mph - N/A   Clear
6:53 PM 39.0 °F 36.8 °F 14.0 °F 36% 30.40 in 10.0 mi West 3.5 mph - N/A   Clear
7:53 PM 37.0 °F 32.4 °F 14.0 °F 39% 30.40 in 10.0 mi NNW 5.8 mph - N/A   Clear
8:53 PM 34.0 °F 29.8 °F 12.9 °F 42% 30.40 in 10.0 mi WNW 4.6 mph - N/A   Clear
9:53 PM 37.0 °F 34.5 °F 14.0 °F 39% 30.38 in 10.0 mi NW 3.5 mph - N/A   Overcast
10:53 PM 37.0 °F - 14.0 °F 39% 30.36 in 10.0 mi Calm Calm - N/A   Overcast
11:53 PM 37.9 °F - 14.0 °F 38% 30.33 in 10.0 mi Calm Calm - N/A   Overcast